Location: Drocourt
(49.0571°N, 1.7669°E)
Time: 14:53:41
(UTC+00:00)

Vanguard 3 - Pass Details

Date: 15 April 2024
Orbit: 509 x 3233 km, 33.3° (Epoch: 22 May)

Event Time Altitude Azimuth Distance (km) Brightness Sun altitude
Rises 07:31:23 0° 242° (WSW) 4,426 10.5 23.6°
Reaches altitude 10° 07:36:04 10° 225° (SW) 2,906 9.8 24.3°
Maximum altitude 07:39:59 16° 188° (S) 2,061 9.4 24.9°
Drops below altitude 10° 07:43:03 10° 150° (SSE) 2,169 10.1 25.4°
Sets 07:45:50 0° 127° (SE) 2,850 11.1 25.9°
